Location: Baia Mare
(47.6567°N, 23.5850°E)
Time: 11:50:18
(UTC+02:00)

ISS - Pass Details

Date: 10 January 2019
Orbit: 404 x 407 km, 51.6° (Epoch: 16 January)

Event Time Altitude Azimuth Distance (km) Brightness Sun altitude
Exits shadow 06:10:25 54° 194° (SSW) 502 -3.5 -19.8°
Drops below altitude 10° 06:13:27 10° 132° (SE) 1,464 -0.1 -19.3°
Sets 06:15:32 0° 128° (SE) 2,321 1.2 -18.9°
